Location: Schommer Observatory
(40.5200°N, 74.4500°W)
Time: 02:17:41
(UTC-04:00)

ISS - Pass Details

Date: 24 May 2018
Orbit: 402 x 407 km, 51.6° (Epoch: 26 May)

Event Time Altitude Azimuth Distance (km) Brightness Sun altitude
Rises 01:33:01 0° 312° (NW) 2,319 0.4 -28.1°
Reaches altitude 10° 01:35:31 10° 332° (NNW) 1,458 -0.4 -28.0°
Enters shadow 01:37:41 19° 13° (NNE) 1,045 -1.0 -27.9°
